Regional Weather Roundup
Issued by NWS

Home | Current Version | Previous Version | Text Only | Print | Product List | Glossary Off
Versions: 1 2 3 4 5 6 7 8 9 10 11 12 13 14 15 16 17 18 19 20 21 22 23 24 25 26 27 28 29 30 31 32 33 34 35 36 37 38 39 40 41 42 43 44 45 46 47 48 49 50

000
ASUS43 KFSD 221102
RWRSD

WEATHER ROUNDUP FOR SOUTH DAKOTA
NATIONAL WEATHER SERVICE SIOUX FALLS SD
500 AM CST WED FEB 22 2017

NOTE: "FAIR" INDICATES FEW OR NO CLOUDS BELOW 12,000 FEET WITH NO
SIGNIFICANT WEATHER AND/OR OBSTRUCTIONS TO VISIBILITY.


SDZ001>005-009-010-012>017-221200-
NORTHWEST AND NORTH CENTRAL SOUTH DAKOTA

CITY           SKY/WX    TMP DP  RH WIND       PRES   REMARKS
BUFFALO          N/A     38  36  92 NE8       29.60F
FAITH            N/A     42  36  79 W12       29.62S
MOBRIDGE       CLOUDY    36  32  85 NW5       29.63R
$$

SDZ012>016-024>037-041>051-057-063-072>074-221200-
SOUTHWEST AND SOUTH CENTRAL SOUTH DAKOTA

CITY           SKY/WX    TMP DP  RH WIND       PRES   REMARKS
RAPID CTY ARPT MOCLDY    46  34  62 SW13      29.66F
PIERRE         CLOUDY    43  37  79 VRB7      29.61F
CUSTER         CLOUDY    36  31  82 SW8       29.74F
ELLSWORTH AFB  CLOUDY    47  32  57 NE7       29.68S
PHILIP         PTCLDY    46  38  73 W12       29.66R
PINE RIDGE     CLEAR     40  37  89 SW5       29.75R
SPEARFISH      FAIR      45  32  61 W12       29.72R
WINNER         FAIR      49  36  61 SW7       29.68F
$$

SDZ004>011-016>023-039-040-221200-
NORTHEAST SOUTH DAKOTA

CITY           SKY/WX    TMP DP  RH WIND       PRES   REMARKS
ABERDEEN       CLOUDY    36  32  85 N7        29.60S
WATERTOWN      PTCLDY    38  37  97 S7        29.60R
BROOKINGS      PTCLDY    39  36  89 CALM      29.60R
SISSETON         N/A     34  34 100 N8        29.60S WCI  27
$$

SDZ017-020-022-023-036>040-048>070-221200-
SOUTHEAST SOUTH DAKOTA

CITY           SKY/WX    TMP DP  RH WIND       PRES   REMARKS
SIOUX FALLS    PTCLDY    35  33  92 E5        29.60F
HURON          MOCLDY    38  37  97 W10       29.63R
CHAMBERLAIN    CLOUDY    46  39  76 W9        29.67R
MITCHELL       PTCLDY    43  36  76 W12       29.63R
YANKTON        CLEAR     46  34  61 NW8       29.60F
$$

ABBREVIATIONS USED IN REMARKS
   TC - TEMPERATURE IN CELSIUS
  WCI - WIND CHILL INDEX
   HX - HEAT INDEX
  VSB - VISIBILITY





USA.gov is the U.S. government's official web portal to all federal, state and local government web resources and services.